Time,TemperatureF,DewpointF,PressureIn,WindDirection,WindDirectionDegrees,WindSpeedMPH,WindSpeedGustMPH,Humidity,HourlyPrecipIn,Conditions,Clouds,dailyrainin,SolarRadiationWatts/m^2,SoftwareType,DateUTC
2013-06-11 00:22:00,66.0,43.0,-100.00,WSW,245,0.0,4.0,43,0.00,,,0.00,0.000000,,2013-06-11 07:22:00,
2013-06-11 00:32:00,66.0,43.0,-100.00,WSW,245,0.0,4.0,43,0.00,,,0.00,0.000000,,2013-06-11 07:32:00,
2013-06-11 00:42:00,66.0,43.0,-100.00,WSW,245,0.0,4.0,43,0.00,,,0.00,0.000000,,2013-06-11 07:42:00,
2013-06-11 00:52:00,66.0,43.0,-100.00,WSW,245,0.0,4.0,43,0.00,,,0.00,0.000000,,2013-06-11 07:52:00,
2013-06-11 01:22:00,66.0,44.0,-100.00,SSE,162,5.0,13.0,45,0.00,,,0.00,0.000000,,2013-06-11 08:22:00,
2013-06-11 01:32:00,66.0,44.0,-100.00,SSE,162,5.0,13.0,45,0.00,,,0.00,0.000000,,2013-06-11 08:32:00,
2013-06-11 01:42:00,66.0,44.0,-100.00,SSE,162,5.0,13.0,45,0.00,,,0.00,0.000000,,2013-06-11 08:42:00,
2013-06-11 01:52:00,66.0,44.0,-100.00,SSE,162,5.0,13.0,45,0.00,,,0.00,0.000000,,2013-06-11 08:52:00,
2013-06-11 02:22:00,66.0,42.0,-100.00,NNE,18,6.0,9.0,42,0.00,,,0.00,0.000000,,2013-06-11 09:22:00,
2013-06-11 02:33:00,66.0,42.0,-100.00,NNE,18,6.0,9.0,42,0.00,,,0.00,0.000000,,2013-06-11 09:33:00,
2013-06-11 02:43:00,66.0,42.0,-100.00,NNE,18,6.0,9.0,42,0.00,,,0.00,0.000000,,2013-06-11 09:43:00,
2013-06-11 02:53:00,66.0,42.0,-100.00,NNE,18,6.0,9.0,42,0.00,,,0.00,0.000000,,2013-06-11 09:53:00,
2013-06-11 03:22:00,65.0,41.0,-100.00,South,170,1.0,9.0,41,0.00,,,0.00,0.000000,,2013-06-11 10:22:00,
2013-06-11 03:33:00,65.0,41.0,-100.00,South,170,1.0,9.0,41,0.00,,,0.00,0.000000,,2013-06-11 10:33:00,
2013-06-11 03:42:00,65.0,41.0,-100.00,South,170,1.0,9.0,41,0.00,,,0.00,0.000000,,2013-06-11 10:42:00,
2013-06-11 03:52:00,65.0,41.0,-100.00,South,170,1.0,9.0,41,0.00,,,0.00,0.000000,,2013-06-11 10:52:00,
2013-06-11 04:22:00,66.0,42.0,-100.00,North,352,4.0,7.0,42,0.00,,,-99.99,0.000000,,2013-06-11 11:22:00,
2013-06-11 04:32:00,66.0,42.0,-100.00,North,352,4.0,7.0,42,0.00,,,-99.99,0.000000,,2013-06-11 11:32:00,
2013-06-11 04:41:00,66.0,42.0,-100.00,North,352,4.0,7.0,42,0.00,,,-99.99,0.000000,,2013-06-11 11:41:00,
2013-06-11 04:52:00,66.0,42.0,-100.00,North,352,4.0,7.0,42,0.00,,,-99.99,0.000000,,2013-06-11 11:52:00,
2013-06-11 05:22:00,64.0,41.0,-100.00,NNE,21,8.0,11.0,43,0.00,,,-99.99,0.000000,,2013-06-11 12:22:00,
2013-06-11 05:32:00,64.0,41.0,-100.00,NNE,21,8.0,11.0,43,0.00,,,-99.99,0.000000,,2013-06-11 12:32:00,
2013-06-11 05:42:00,64.0,41.0,-100.00,NNE,21,8.0,11.0,43,0.00,,,-99.99,0.000000,,2013-06-11 12:42:00,
2013-06-11 05:52:00,64.0,41.0,-100.00,NNE,21,8.0,11.0,43,0.00,,,-99.99,0.000000,,2013-06-11 12:52:00,
2013-06-11 06:22:00,64.0,42.0,-100.00,North,5,11.0,15.0,45,0.00,,,-99.99,2.000000,,2013-06-11 13:22:00,
2013-06-11 06:32:00,64.0,42.0,-100.00,North,5,11.0,15.0,45,0.00,,,-99.99,2.000000,,2013-06-11 13:32:00,
2013-06-11 06:42:00,64.0,42.0,-100.00,North,5,11.0,15.0,45,0.00,,,-99.99,2.000000,,2013-06-11 13:42:00,
2013-06-11 06:52:00,64.0,42.0,-100.00,North,5,11.0,15.0,45,0.00,,,-99.99,2.000000,,2013-06-11 13:52:00,
2013-06-11 07:22:00,64.0,41.0,-100.00,NNE,21,9.0,14.0,43,0.00,,,0.00,24.000000,,2013-06-11 14:22:00,
2013-06-11 07:32:00,64.0,41.0,-100.00,NNE,21,9.0,14.0,43,0.00,,,0.00,24.000000,,2013-06-11 14:32:00,
2013-06-11 07:42:00,64.0,41.0,-100.00,NNE,21,9.0,14.0,43,0.00,,,0.00,24.000000,,2013-06-11 14:42:00,
2013-06-11 07:52:00,64.0,41.0,-100.00,NNE,21,9.0,14.0,43,0.00,,,0.00,24.000000,,2013-06-11 14:52:00,
2013-06-11 08:22:00,72.0,42.0,-100.00,ESE,121,3.0,13.0,34,0.00,,,0.00,247.000000,,2013-06-11 15:22:00,
2013-06-11 08:33:00,72.0,42.0,-100.00,ESE,121,3.0,13.0,34,0.00,,,0.00,247.000000,,2013-06-11 15:33:00,
2013-06-11 08:42:00,72.0,42.0,-100.00,ESE,121,3.0,13.0,34,0.00,,,0.00,247.000000,,2013-06-11 15:42:00,
2013-06-11 08:53:00,72.0,42.0,-100.00,ESE,121,3.0,13.0,34,0.00,,,0.00,247.000000,,2013-06-11 15:53:00,
2013-06-11 09:22:00,73.0,42.0,-100.00,South,176,9.0,12.0,33,0.00,,,0.00,443.000000,,2013-06-11 16:22:00,
2013-06-11 09:32:00,73.0,42.0,-100.00,South,176,9.0,12.0,33,0.00,,,0.00,443.000000,,2013-06-11 16:32:00,
2013-06-11 09:42:00,73.0,42.0,-100.00,South,176,9.0,12.0,33,0.00,,,0.00,443.000000,,2013-06-11 16:42:00,
2013-06-11 09:52:00,73.0,42.0,-100.00,South,176,9.0,12.0,33,0.00,,,0.00,443.000000,,2013-06-11 16:52:00,
2013-06-11 10:22:00,78.0,42.0,-100.00,SSE,159,9.0,14.0,28,0.00,,,0.00,721.000000,,2013-06-11 17:22:00,
2013-06-11 10:32:00,78.0,42.0,-100.00,SSE,159,9.0,14.0,28,0.00,,,0.00,721.000000,,2013-06-11 17:32:00,
2013-06-11 10:43:00,78.0,42.0,-100.00,SSE,159,9.0,14.0,28,0.00,,,0.00,721.000000,,2013-06-11 17:43:00,
2013-06-11 10:52:00,78.0,42.0,-100.00,SSE,159,9.0,14.0,28,0.00,,,0.00,721.000000,,2013-06-11 17:52:00,
2013-06-11 11:22:00,83.0,41.0,-100.00,SSE,154,7.0,14.0,23,0.00,,,0.00,890.000000,,2013-06-11 18:22:00,
2013-06-11 11:32:00,83.0,41.0,-100.00,SSE,154,7.0,14.0,23,0.00,,,0.00,890.000000,,2013-06-11 18:32:00,
2013-06-11 11:42:00,83.0,41.0,-100.00,SSE,154,7.0,14.0,23,0.00,,,0.00,890.000000,,2013-06-11 18:42:00,
2013-06-11 11:52:00,83.0,41.0,-100.00,SSE,154,7.0,14.0,23,0.00,,,0.00,890.000000,,2013-06-11 18:52:00,
2013-06-11 12:22:00,87.0,42.0,-100.00,South,178,12.0,16.0,21,0.00,,,0.00,1001.000000,,2013-06-11 19:22:00,
2013-06-11 12:32:00,87.0,42.0,-100.00,South,178,12.0,16.0,21,0.00,,,0.00,1001.000000,,2013-06-11 19:32:00,
2013-06-11 12:42:00,87.0,42.0,-100.00,South,178,12.0,16.0,21,0.00,,,0.00,1001.000000,,2013-06-11 19:42:00,
2013-06-11 12:52:00,87.0,42.0,-100.00,South,178,12.0,16.0,21,0.00,,,0.00,1001.000000,,2013-06-11 19:52:00,
2013-06-11 13:22:00,91.0,37.0,-100.00,South,189,8.0,17.0,15,0.00,,,0.00,1034.000000,,2013-06-11 20:22:00,
2013-06-11 13:32:00,91.0,37.0,-100.00,South,189,8.0,17.0,15,0.00,,,0.00,1034.000000,,2013-06-11 20:32:00,
2013-06-11 13:42:00,91.0,37.0,-100.00,South,189,8.0,17.0,15,0.00,,,0.00,1034.000000,,2013-06-11 20:42:00,
2013-06-11 13:52:00,91.0,37.0,-100.00,South,189,8.0,17.0,15,0.00,,,0.00,1034.000000,,2013-06-11 20:52:00,
2013-06-11 14:22:00,92.0,32.0,-100.00,NW,320,19.0,26.0,12,0.00,,,0.00,1048.000000,,2013-06-11 21:22:00,
2013-06-11 14:33:00,92.0,32.0,-100.00,NW,320,19.0,26.0,12,0.00,,,0.00,1048.000000,,2013-06-11 21:33:00,
2013-06-11 14:42:00,92.0,32.0,-100.00,NW,320,19.0,26.0,12,0.00,,,0.00,1048.000000,,2013-06-11 21:42:00,
2013-06-11 14:52:00,92.0,32.0,-100.00,NW,320,19.0,26.0,12,0.00,,,0.00,1048.000000,,2013-06-11 21:52:00,
2013-06-11 15:22:00,93.0,28.0,-100.00,NW,305,19.0,32.0,10,0.00,,,0.00,976.000000,,2013-06-11 22:22:00,
2013-06-11 15:32:00,93.0,28.0,-100.00,NW,305,19.0,32.0,10,0.00,,,0.00,976.000000,,2013-06-11 22:32:00,
2013-06-11 15:42:00,93.0,28.0,-100.00,NW,305,19.0,32.0,10,0.00,,,0.00,976.000000,,2013-06-11 22:42:00,
2013-06-11 15:52:00,93.0,28.0,-100.00,NW,305,19.0,32.0,10,0.00,,,0.00,976.000000,,2013-06-11 22:52:00,
2013-06-11 16:22:00,94.0,31.0,-100.00,NW,325,19.0,28.0,11,0.00,,,-99.99,933.000000,,2013-06-11 23:22:00,
2013-06-11 16:32:00,94.0,31.0,-100.00,NW,325,19.0,28.0,11,0.00,,,-99.99,933.000000,,2013-06-11 23:32:00,
2013-06-11 16:42:00,94.0,31.0,-100.00,NW,325,19.0,28.0,11,0.00,,,-99.99,933.000000,,2013-06-11 23:42:00,
2013-06-11 16:52:00,94.0,31.0,-100.00,NW,325,19.0,28.0,11,0.00,,,-99.99,933.000000,,2013-06-11 23:52:00,
2013-06-11 17:22:00,92.0,30.0,-100.00,NW,304,15.0,33.0,11,0.00,,,0.00,769.000000,,2013-06-12 00:22:00,
2013-06-11 17:32:00,92.0,30.0,-100.00,NW,304,15.0,33.0,11,0.00,,,0.00,769.000000,,2013-06-12 00:32:00,
2013-06-11 17:42:00,92.0,30.0,-100.00,NW,304,15.0,33.0,11,0.00,,,0.00,769.000000,,2013-06-12 00:42:00,
2013-06-11 17:52:00,92.0,30.0,-100.00,NW,304,15.0,33.0,11,0.00,,,0.00,769.000000,,2013-06-12 00:52:00,
2013-06-11 18:22:00,92.0,34.0,-100.00,NW,321,15.0,30.0,13,0.00,,,0.00,562.000000,,2013-06-12 01:22:00,
2013-06-11 18:32:00,92.0,34.0,-100.00,NW,321,15.0,30.0,13,0.00,,,0.00,562.000000,,2013-06-12 01:32:00,
2013-06-11 18:42:00,92.0,34.0,-100.00,NW,321,15.0,30.0,13,0.00,,,0.00,562.000000,,2013-06-12 01:42:00,
2013-06-11 18:52:00,92.0,34.0,-100.00,NW,321,15.0,30.0,13,0.00,,,0.00,562.000000,,2013-06-12 01:52:00,
2013-06-11 19:22:00,93.0,35.0,-100.00,North,2,13.0,25.0,13,0.00,,,0.00,325.000000,,2013-06-12 02:22:00,
2013-06-11 19:32:00,93.0,35.0,-100.00,North,2,13.0,25.0,13,0.00,,,0.00,325.000000,,2013-06-12 02:32:00,
2013-06-11 19:42:00,93.0,35.0,-100.00,North,2,13.0,25.0,13,0.00,,,0.00,325.000000,,2013-06-12 02:42:00,
2013-06-11 19:52:00,93.0,35.0,-100.00,North,2,13.0,25.0,13,0.00,,,0.00,325.000000,,2013-06-12 02:52:00,
2013-06-11 20:22:00,86.0,33.0,-100.00,North,0,12.0,23.0,15,0.00,,,0.00,72.000000,,2013-06-12 03:22:00,
2013-06-11 20:32:00,86.0,33.0,-100.00,North,0,12.0,23.0,15,0.00,,,0.00,72.000000,,2013-06-12 03:32:00,
2013-06-11 20:42:00,86.0,33.0,-100.00,North,0,12.0,23.0,15,0.00,,,0.00,72.000000,,2013-06-12 03:42:00,
2013-06-11 20:53:00,86.0,33.0,-100.00,North,0,12.0,23.0,15,0.00,,,0.00,72.000000,,2013-06-12 03:53:00,
2013-06-11 21:23:00,81.0,37.0,-100.00,WNW,289,10.0,20.0,21,0.00,,,0.00,2.000000,,2013-06-12 04:23:00,
2013-06-11 21:33:00,81.0,37.0,-100.00,WNW,289,10.0,20.0,21,0.00,,,0.00,2.000000,,2013-06-12 04:33:00,
2013-06-11 21:42:00,81.0,37.0,-100.00,WNW,289,10.0,20.0,21,0.00,,,0.00,2.000000,,2013-06-12 04:42:00,
2013-06-11 21:52:00,81.0,37.0,-100.00,WNW,289,10.0,20.0,21,0.00,,,0.00,2.000000,,2013-06-12 04:52:00,
2013-06-11 22:22:00,77.0,46.0,-100.00,South,175,3.0,17.0,34,0.00,,,0.00,0.000000,,2013-06-12 05:22:00,
2013-06-11 22:32:00,77.0,46.0,-100.00,South,175,3.0,17.0,34,0.00,,,0.00,0.000000,,2013-06-12 05:32:00,
2013-06-11 22:42:00,77.0,46.0,-100.00,South,175,3.0,17.0,34,0.00,,,0.00,0.000000,,2013-06-12 05:42:00,
2013-06-11 22:52:00,77.0,46.0,-100.00,South,175,3.0,17.0,34,0.00,,,0.00,0.000000,,2013-06-12 05:52:00,
2013-06-11 23:22:00,76.0,49.0,-100.00,NNE,26,0.0,9.0,38,0.00,,,0.00,0.000000,,2013-06-12 06:22:00,
2013-06-11 23:42:00,76.0,49.0,-100.00,NNE,26,0.0,9.0,38,0.00,,,0.00,0.000000,,2013-06-12 06:42:00,
2013-06-11 23:52:00,76.0,49.0,-100.00,NNE,26,0.0,9.0,38,0.00,,,0.00,0.000000,,2013-06-12 06:52:00,